Year,Month,Day,Hour,Minute,Value (Times are PST for temperature in C)
2014,05,21,00,00,9.50
2014,05,21,00,01,9.50
2014,05,21,00,02,9.50
2014,05,21,00,03,9.50
2014,05,21,00,04,9.50
2014,05,21,00,05,9.50
2014,05,21,00,06,9.50
2014,05,21,00,07,9.50
2014,05,21,00,08,9.50
2014,05,21,00,09,9.50
2014,05,21,00,10,9.50
2014,05,21,00,11,9.50
2014,05,21,00,12,9.40
2014,05,21,00,13,9.40
2014,05,21,00,14,9.40
2014,05,21,00,15,9.40
2014,05,21,00,16,9.40
2014,05,21,00,17,9.40
2014,05,21,00,18,9.40
2014,05,21,00,19,9.30
2014,05,21,00,20,9.30
2014,05,21,00,21,9.30
2014,05,21,00,22,9.30
2014,05,21,00,23,9.30
2014,05,21,00,24,9.30
2014,05,21,00,25,9.20
2014,05,21,00,26,9.20
2014,05,21,00,27,9.20
2014,05,21,00,28,9.20
2014,05,21,00,29,9.20
2014,05,21,00,30,9.20
2014,05,21,00,31,9.20
2014,05,21,00,32,9.20
2014,05,21,00,33,9.10
2014,05,21,00,34,9.10
2014,05,21,00,35,9.10
2014,05,21,00,36,9.10
2014,05,21,00,37,9.00
2014,05,21,00,38,9.00
2014,05,21,00,39,9.00
2014,05,21,00,40,9.00
2014,05,21,00,41,9.00
2014,05,21,00,42,9.00
2014,05,21,00,43,9.00
2014,05,21,00,44,8.90
2014,05,21,00,45,8.90
2014,05,21,00,46,8.90
2014,05,21,00,47,8.90
2014,05,21,00,48,8.90
2014,05,21,00,49,8.90
2014,05,21,00,50,8.90
2014,05,21,00,51,9.00
2014,05,21,00,52,9.00
2014,05,21,00,53,9.00
2014,05,21,00,54,9.00
2014,05,21,00,55,9.00
2014,05,21,00,56,9.00
2014,05,21,00,57,9.00
2014,05,21,00,58,9.00
2014,05,21,00,59,8.90
2014,05,21,01,00,8.90
2014,05,21,01,01,8.90
2014,05,21,01,02,8.90
2014,05,21,01,03,8.80
2014,05,21,01,04,8.70
2014,05,21,01,05,8.70
2014,05,21,01,06,8.70
2014,05,21,01,07,8.60
2014,05,21,01,08,8.60
2014,05,21,01,09,8.50
2014,05,21,01,10,8.40
2014,05,21,01,11,8.40
2014,05,21,01,12,8.30
2014,05,21,01,13,8.30
2014,05,21,01,14,8.20
2014,05,21,01,15,8.20
2014,05,21,01,16,8.20
2014,05,21,01,17,8.20
2014,05,21,01,18,8.10
2014,05,21,01,19,8.10
2014,05,21,01,20,8.10
2014,05,21,01,21,8.00
2014,05,21,01,22,8.00
2014,05,21,01,23,8.00
2014,05,21,01,24,7.90
2014,05,21,01,25,7.90
2014,05,21,01,26,7.90
2014,05,21,01,27,7.90
2014,05,21,01,28,7.80
2014,05,21,01,29,7.80
2014,05,21,01,30,7.80
2014,05,21,01,31,7.80
2014,05,21,01,32,7.80
2014,05,21,01,33,7.70
2014,05,21,01,34,7.70
2014,05,21,01,35,7.60
2014,05,21,01,36,7.60
2014,05,21,01,37,7.60
2014,05,21,01,38,7.50
2014,05,21,01,39,7.50
2014,05,21,01,40,7.50
2014,05,21,01,41,7.40
2014,05,21,01,42,7.40
2014,05,21,01,43,7.40
2014,05,21,01,44,7.30
2014,05,21,01,45,7.30
2014,05,21,01,46,7.30
2014,05,21,01,47,7.30
2014,05,21,01,48,7.30
2014,05,21,01,49,7.30
2014,05,21,01,50,7.30
2014,05,21,01,51,7.30
2014,05,21,01,52,7.30
2014,05,21,01,53,7.30
2014,05,21,01,54,7.30
2014,05,21,01,55,7.30
2014,05,21,01,56,7.30
2014,05,21,01,57,7.30
2014,05,21,01,58,7.20
2014,05,21,01,59,7.20
2014,05,21,02,00,7.20
2014,05,21,02,01,7.20
2014,05,21,02,02,7.20
2014,05,21,02,03,7.20
2014,05,21,02,04,7.20
2014,05,21,02,05,7.20
2014,05,21,02,06,7.20
2014,05,21,02,07,7.20
2014,05,21,02,08,7.20
2014,05,21,02,09,7.20
2014,05,21,02,10,7.20
2014,05,21,02,11,7.20
2014,05,21,02,12,7.20
2014,05,21,02,13,7.10
2014,05,21,02,14,7.10
2014,05,21,02,15,7.10
2014,05,21,02,16,7.10
2014,05,21,02,17,7.10
2014,05,21,02,18,7.10
2014,05,21,02,19,7.10
2014,05,21,02,20,7.10
2014,05,21,02,21,7.10
2014,05,21,02,22,7.10
2014,05,21,02,23,7.10
2014,05,21,02,24,7.10
2014,05,21,02,25,7.10
2014,05,21,02,26,7.10
2014,05,21,02,27,7.10
2014,05,21,02,28,7.10
2014,05,21,02,29,7.10
2014,05,21,02,30,7.10
2014,05,21,02,31,7.10
2014,05,21,02,32,7.10
2014,05,21,02,33,7.10
2014,05,21,02,34,7.10
2014,05,21,02,35,7.10
2014,05,21,02,36,7.10
2014,05,21,02,37,7.10
2014,05,21,02,38,7.10
2014,05,21,02,39,7.10
2014,05,21,02,40,7.10
2014,05,21,02,41,7.10
2014,05,21,02,42,7.10
2014,05,21,02,43,7.10
2014,05,21,02,44,7.10
2014,05,21,02,45,7.10
2014,05,21,02,46,7.10
2014,05,21,02,47,7.10
2014,05,21,02,48,7.00
2014,05,21,02,49,7.00
2014,05,21,02,50,7.00
2014,05,21,02,51,7.00
2014,05,21,02,52,7.00
2014,05,21,02,53,7.00
2014,05,21,02,54,7.00
2014,05,21,02,55,7.00
2014,05,21,02,56,6.90
2014,05,21,02,57,6.90
2014,05,21,02,58,6.90
2014,05,21,02,59,6.90
2014,05,21,03,00,6.90
2014,05,21,03,01,6.90
2014,05,21,03,02,6.90
2014,05,21,03,03,6.90
2014,05,21,03,04,6.90
2014,05,21,03,05,6.90
2014,05,21,03,06,6.90
2014,05,21,03,07,6.90
2014,05,21,03,08,6.90
2014,05,21,03,09,6.90
2014,05,21,03,10,6.90
2014,05,21,03,11,6.90
2014,05,21,03,12,6.90
2014,05,21,03,13,6.90
2014,05,21,03,14,6.90
2014,05,21,03,15,6.90
2014,05,21,03,16,6.90
2014,05,21,03,17,6.90
2014,05,21,03,18,6.90
2014,05,21,03,19,6.90
2014,05,21,03,20,6.90
2014,05,21,03,21,6.90
2014,05,21,03,22,6.90
2014,05,21,03,23,6.90
2014,05,21,03,24,6.90
2014,05,21,03,25,6.90
2014,05,21,03,26,6.90
2014,05,21,03,27,6.90
2014,05,21,03,28,6.90
2014,05,21,03,29,7.00
2014,05,21,03,30,7.00
2014,05,21,03,31,7.00
2014,05,21,03,32,7.00
2014,05,21,03,33,7.00
2014,05,21,03,34,7.00
2014,05,21,03,35,7.00
2014,05,21,03,36,7.00
2014,05,21,03,37,7.00
2014,05,21,03,38,7.00
2014,05,21,03,39,7.00
2014,05,21,03,40,7.00
2014,05,21,03,41,7.00
2014,05,21,03,42,7.00
2014,05,21,03,43,7.00
2014,05,21,03,44,7.00
2014,05,21,03,45,7.00
2014,05,21,03,46,7.00
2014,05,21,03,47,7.00
2014,05,21,03,48,7.00
2014,05,21,03,49,6.90
2014,05,21,03,50,6.90
2014,05,21,03,51,6.90
2014,05,21,03,52,6.90
2014,05,21,03,53,6.90
2014,05,21,03,54,6.90
2014,05,21,03,55,6.80
2014,05,21,03,56,6.80
2014,05,21,03,57,6.80
2014,05,21,03,58,6.80
2014,05,21,03,59,6.80
2014,05,21,04,00,6.80
2014,05,21,04,01,6.80
2014,05,21,04,02,6.80
2014,05,21,04,03,6.80
2014,05,21,04,04,6.80
2014,05,21,04,05,6.70
2014,05,21,04,06,6.70
2014,05,21,04,07,6.70
2014,05,21,04,08,6.70
2014,05,21,04,09,6.70
2014,05,21,04,10,6.70
2014,05,21,04,11,6.60
2014,05,21,04,12,6.60
2014,05,21,04,13,6.60
2014,05,21,04,14,6.60
2014,05,21,04,15,6.60
2014,05,21,04,16,6.60
2014,05,21,04,17,6.60
2014,05,21,04,18,6.60
2014,05,21,04,19,6.60
2014,05,21,04,20,6.60
2014,05,21,04,21,6.60
2014,05,21,04,22,6.60
2014,05,21,04,23,6.60
2014,05,21,04,24,6.60
2014,05,21,04,25,6.60
2014,05,21,04,26,6.60
2014,05,21,04,27,6.60
2014,05,21,04,28,6.60
2014,05,21,04,29,6.60
2014,05,21,04,30,6.60
2014,05,21,04,31,6.60
2014,05,21,04,32,6.60
2014,05,21,04,33,6.60
2014,05,21,04,34,6.60
2014,05,21,04,35,6.60
2014,05,21,04,36,6.60
2014,05,21,04,37,6.60
2014,05,21,04,38,6.60
2014,05,21,04,39,6.60
2014,05,21,04,40,6.60
2014,05,21,04,41,6.60
2014,05,21,04,42,6.60
2014,05,21,04,43,6.60
2014,05,21,04,44,6.60
2014,05,21,04,45,6.70
2014,05,21,04,46,6.70
2014,05,21,04,47,6.70
2014,05,21,04,48,6.70
2014,05,21,04,49,6.70
2014,05,21,04,50,6.70
2014,05,21,04,51,6.70
2014,05,21,04,52,6.70
2014,05,21,04,53,6.60
2014,05,21,04,54,6.60
2014,05,21,04,55,6.60
2014,05,21,04,56,6.60
2014,05,21,04,57,6.60
2014,05,21,04,58,6.60
2014,05,21,04,59,6.60
2014,05,21,05,00,6.60
2014,05,21,05,01,6.60
2014,05,21,05,02,6.50
2014,05,21,05,03,6.40
2014,05,21,05,04,6.40
2014,05,21,05,05,6.40
2014,05,21,05,06,6.40
2014,05,21,05,07,6.40
2014,05,21,05,08,6.40
2014,05,21,05,09,6.40
2014,05,21,05,10,6.40
2014,05,21,05,11,6.40
2014,05,21,05,12,6.40
2014,05,21,05,13,6.40
2014,05,21,05,14,6.30
2014,05,21,05,15,6.30
2014,05,21,05,16,6.30
2014,05,21,05,17,6.30
2014,05,21,05,18,6.30
2014,05,21,05,19,6.30
2014,05,21,05,20,6.30
2014,05,21,05,21,6.30
2014,05,21,05,22,6.30
2014,05,21,05,23,6.30
2014,05,21,05,24,6.30
2014,05,21,05,25,6.30
2014,05,21,05,26,6.30
2014,05,21,05,27,6.30
2014,05,21,05,28,6.30
2014,05,21,05,29,6.30
2014,05,21,05,30,6.30
2014,05,21,05,31,6.30
2014,05,21,05,32,6.30
2014,05,21,05,33,6.30
2014,05,21,05,34,6.40
2014,05,21,05,35,6.40
2014,05,21,05,36,6.40
2014,05,21,05,37,6.40
2014,05,21,05,38,6.40
2014,05,21,05,39,6.40
2014,05,21,05,40,6.40
2014,05,21,05,41,6.40
2014,05,21,05,42,6.40
2014,05,21,05,43,6.40
2014,05,21,05,44,6.40
2014,05,21,05,45,6.40
2014,05,21,05,46,6.40
2014,05,21,05,47,6.40
2014,05,21,05,48,6.40
2014,05,21,05,49,6.40
2014,05,21,05,50,6.50
2014,05,21,05,51,6.60
2014,05,21,05,52,6.60
2014,05,21,05,53,6.60
2014,05,21,05,54,6.60
2014,05,21,05,55,6.60
2014,05,21,05,56,6.60
2014,05,21,05,57,6.60
2014,05,21,05,58,6.60
2014,05,21,05,59,6.60
2014,05,21,06,00,6.60
2014,05,21,06,01,6.60
2014,05,21,06,02,6.60
2014,05,21,06,03,6.70
2014,05,21,06,04,6.70
2014,05,21,06,05,6.70
2014,05,21,06,06,6.70
2014,05,21,06,07,6.70
2014,05,21,06,08,6.70
2014,05,21,06,09,6.70
2014,05,21,06,10,6.80
2014,05,21,06,11,6.80
2014,05,21,06,12,6.80
2014,05,21,06,13,6.80
2014,05,21,06,14,6.80
2014,05,21,06,15,6.80
2014,05,21,06,16,6.80
2014,05,21,06,17,6.80
2014,05,21,06,18,6.80
2014,05,21,06,19,6.80
2014,05,21,06,20,6.80
2014,05,21,06,21,6.80
2014,05,21,06,22,6.90
2014,05,21,06,23,6.90
2014,05,21,06,24,6.90
2014,05,21,06,25,6.90
2014,05,21,06,26,7.00
2014,05,21,06,27,7.00
2014,05,21,06,28,7.00
2014,05,21,06,29,7.00
2014,05,21,06,30,7.00
2014,05,21,06,31,7.00
2014,05,21,06,32,7.10
2014,05,21,06,33,7.10
2014,05,21,06,34,7.10
2014,05,21,06,35,7.10
2014,05,21,06,36,7.20
2014,05,21,06,37,7.20
2014,05,21,06,38,7.20
2014,05,21,06,39,7.30
2014,05,21,06,40,7.30
2014,05,21,06,41,7.30
2014,05,21,06,42,7.30
2014,05,21,06,43,7.30
2014,05,21,06,44,7.40
2014,05,21,06,45,7.40
2014,05,21,06,46,7.50
2014,05,21,06,47,7.50
2014,05,21,06,48,7.60
2014,05,21,06,49,7.60
2014,05,21,06,50,7.70
2014,05,21,06,51,7.70
2014,05,21,06,52,7.80
2014,05,21,06,53,7.80
2014,05,21,06,54,7.80
2014,05,21,06,55,7.80
2014,05,21,06,56,7.90
2014,05,21,06,57,7.90
2014,05,21,06,58,8.00
2014,05,21,06,59,8.00
2014,05,21,07,00,8.10
2014,05,21,07,01,8.10
2014,05,21,07,02,8.20
2014,05,21,07,03,8.20
2014,05,21,07,04,8.20
2014,05,21,07,05,8.20
2014,05,21,07,06,8.30
2014,05,21,07,07,8.30
2014,05,21,07,08,8.30
2014,05,21,07,09,8.40
2014,05,21,07,10,8.40
2014,05,21,07,11,8.50
2014,05,21,07,12,8.50
2014,05,21,07,13,8.50
2014,05,21,07,14,8.60
2014,05,21,07,15,8.60
2014,05,21,07,16,8.70
2014,05,21,07,17,8.70
2014,05,21,07,18,8.70
2014,05,21,07,19,8.70
2014,05,21,07,20,8.80
2014,05,21,07,21,8.80
2014,05,21,07,22,8.90
2014,05,21,07,23,8.90
2014,05,21,07,24,9.00
2014,05,21,07,25,9.00
2014,05,21,07,26,9.10
2014,05,21,07,27,9.10
2014,05,21,07,28,9.20
2014,05,21,07,29,9.20
2014,05,21,07,30,9.20
2014,05,21,07,31,9.30
2014,05,21,07,32,9.30
2014,05,21,07,33,9.30
2014,05,21,07,34,9.40
2014,05,21,07,35,9.40
2014,05,21,07,36,9.40
2014,05,21,07,37,9.50
2014,05,21,07,38,9.50
2014,05,21,07,39,9.60
2014,05,21,07,40,9.70
2014,05,21,07,41,9.70
2014,05,21,07,42,9.70
2014,05,21,07,43,9.80
2014,05,21,07,44,9.80
2014,05,21,07,45,9.90
2014,05,21,07,46,9.90
2014,05,21,07,47,9.90
2014,05,21,07,48,10.00
2014,05,21,07,49,10.10
2014,05,21,07,50,10.10
2014,05,21,07,51,10.10
2014,05,21,07,52,10.20
2014,05,21,07,53,10.30
2014,05,21,07,54,10.30
2014,05,21,07,55,10.30
2014,05,21,07,56,10.40
2014,05,21,07,57,10.40
2014,05,21,07,58,10.40
2014,05,21,07,59,10.50
2014,05,21,08,00,10.60
2014,05,21,08,01,10.60
2014,05,21,08,02,10.60
2014,05,21,08,03,10.70
2014,05,21,08,04,10.70
2014,05,21,08,05,10.70
2014,05,21,08,06,10.80
2014,05,21,08,07,10.80
2014,05,21,08,08,10.90
2014,05,21,08,09,10.90
2014,05,21,08,10,11.00
2014,05,21,08,11,11.10
2014,05,21,08,12,11.10
2014,05,21,08,13,11.20
2014,05,21,08,14,11.30
2014,05,21,08,15,11.40
2014,05,21,08,16,11.40
2014,05,21,08,17,11.60
2014,05,21,08,18,11.70
2014,05,21,08,19,11.80
2014,05,21,08,20,11.90
2014,05,21,08,21,12.00
2014,05,21,08,22,12.10
2014,05,21,08,23,12.20
2014,05,21,08,24,12.30
2014,05,21,08,25,12.40
2014,05,21,08,26,12.50
2014,05,21,08,27,12.50
2014,05,21,08,28,12.70
2014,05,21,08,29,12.80
2014,05,21,08,30,12.90
2014,05,21,08,31,13.00
2014,05,21,08,32,13.10
2014,05,21,08,33,13.20
2014,05,21,08,34,13.30
2014,05,21,08,35,13.40
2014,05,21,08,36,13.50
2014,05,21,08,37,13.60
2014,05,21,08,38,13.70
2014,05,21,08,39,13.80
2014,05,21,08,40,13.80
2014,05,21,08,41,13.90
2014,05,21,08,42,13.90
2014,05,21,08,43,14.00
2014,05,21,08,44,14.00
2014,05,21,08,45,14.10
2014,05,21,08,46,14.20
2014,05,21,08,47,14.20
2014,05,21,08,48,14.20
2014,05,21,08,49,14.20
2014,05,21,08,50,14.20
2014,05,21,08,51,14.30
2014,05,21,08,52,14.40
2014,05,21,08,53,14.50
2014,05,21,08,54,14.60
2014,05,21,08,55,14.60
2014,05,21,08,56,14.70
2014,05,21,08,57,14.80
2014,05,21,08,58,14.80
2014,05,21,08,59,14.70
2014,05,21,09,00,14.70
2014,05,21,09,01,14.70
2014,05,21,09,02,14.70
2014,05,21,09,03,14.80
2014,05,21,09,04,14.80
2014,05,21,09,05,14.80
2014,05,21,09,06,14.80
2014,05,21,09,07,14.80
2014,05,21,09,08,14.80
2014,05,21,09,09,14.90
2014,05,21,09,10,14.90
2014,05,21,09,11,14.90
2014,05,21,09,12,14.90
2014,05,21,09,13,15.00
2014,05,21,09,14,15.00
2014,05,21,09,15,15.10
2014,05,21,09,16,15.10
2014,05,21,09,17,15.20
2014,05,21,09,18,15.30
2014,05,21,09,19,15.30
2014,05,21,09,20,15.30
2014,05,21,09,21,15.40
2014,05,21,09,22,15.40
2014,05,21,09,23,15.50
2014,05,21,09,24,15.50
2014,05,21,09,25,15.50
2014,05,21,09,26,15.50
2014,05,21,09,27,15.60
2014,05,21,09,28,15.70
2014,05,21,09,29,15.80
2014,05,21,09,30,15.80
2014,05,21,09,31,15.90
2014,05,21,09,32,15.90
2014,05,21,09,33,16.00
2014,05,21,09,34,16.10
2014,05,21,09,35,16.10
2014,05,21,09,36,16.10
2014,05,21,09,37,16.00
2014,05,21,09,38,15.90
2014,05,21,09,39,15.90
2014,05,21,09,40,15.90
2014,05,21,09,41,15.90
2014,05,21,09,42,15.90
2014,05,21,09,43,15.90
2014,05,21,09,44,16.00
2014,05,21,09,45,16.10
2014,05,21,09,46,16.10
2014,05,21,09,47,16.10
2014,05,21,09,48,16.10
2014,05,21,09,49,16.20
2014,05,21,09,50,16.20
2014,05,21,09,51,16.10
2014,05,21,09,52,16.10
2014,05,21,09,53,16.10
2014,05,21,09,54,16.10
2014,05,21,09,55,16.10
2014,05,21,09,56,16.10
2014,05,21,09,57,16.20
2014,05,21,09,58,16.20
2014,05,21,09,59,16.20
2014,05,21,10,00,16.20
2014,05,21,10,01,16.20
2014,05,21,10,02,16.20
2014,05,21,10,03,16.10
2014,05,21,10,04,16.10
2014,05,21,10,05,16.10
2014,05,21,10,06,16.20
2014,05,21,10,07,16.20
2014,05,21,10,08,16.30
2014,05,21,10,09,16.40
2014,05,21,10,10,16.40
2014,05,21,10,11,16.40
2014,05,21,10,12,16.40
2014,05,21,10,13,16.50
2014,05,21,10,14,16.60
2014,05,21,10,15,16.60
2014,05,21,10,16,16.60
2014,05,21,10,17,16.60
2014,05,21,10,18,16.70
2014,05,21,10,19,16.70
2014,05,21,10,20,16.70
2014,05,21,10,21,16.70
2014,05,21,10,22,16.70
2014,05,21,10,23,16.80
2014,05,21,10,24,16.80
2014,05,21,10,25,16.90
2014,05,21,10,26,16.90
2014,05,21,10,27,16.90
2014,05,21,10,28,16.90
2014,05,21,10,29,16.90
2014,05,21,10,30,16.90
2014,05,21,10,31,16.90
2014,05,21,10,32,16.90
2014,05,21,10,33,16.90
2014,05,21,10,34,16.90
2014,05,21,10,35,16.90
2014,05,21,10,36,16.90
2014,05,21,10,37,17.00
2014,05,21,10,38,17.10
2014,05,21,10,39,17.20
2014,05,21,10,40,17.20
2014,05,21,10,41,17.30
2014,05,21,10,42,17.30
2014,05,21,10,43,17.40
2014,05,21,10,44,17.40
2014,05,21,10,45,17.50
2014,05,21,10,46,17.50
2014,05,21,10,47,17.60
2014,05,21,10,48,17.70
2014,05,21,10,49,17.80
2014,05,21,10,50,17.80
2014,05,21,10,51,17.90
2014,05,21,10,52,18.00
2014,05,21,10,53,18.10
2014,05,21,10,54,18.20
2014,05,21,10,55,18.20
2014,05,21,10,56,18.30
2014,05,21,10,57,18.30
2014,05,21,10,58,18.30
2014,05,21,10,59,18.40
2014,05,21,11,00,18.30
2014,05,21,11,01,18.30
2014,05,21,11,02,18.30
2014,05,21,11,03,18.30
2014,05,21,11,04,18.30
2014,05,21,11,05,18.20
2014,05,21,11,06,18.10
2014,05,21,11,07,18.00
2014,05,21,11,08,18.00
2014,05,21,11,09,18.10
2014,05,21,11,10,18.10
2014,05,21,11,11,18.20
2014,05,21,11,12,18.30
2014,05,21,11,13,18.30
2014,05,21,11,14,18.30
2014,05,21,11,15,18.30
2014,05,21,11,16,18.30
2014,05,21,11,17,18.30
2014,05,21,11,18,18.40
2014,05,21,11,19,18.40
2014,05,21,11,20,18.40
2014,05,21,11,21,18.40
2014,05,21,11,22,18.40
2014,05,21,11,23,18.30
2014,05,21,11,24,18.30
2014,05,21,11,25,18.30
2014,05,21,11,26,18.40
2014,05,21,11,27,18.30
2014,05,21,11,28,18.30
2014,05,21,11,29,18.30
2014,05,21,11,30,18.30
2014,05,21,11,31,18.40
2014,05,21,11,32,18.50
2014,05,21,11,33,18.50
2014,05,21,11,34,18.60
2014,05,21,11,35,18.70
2014,05,21,11,36,18.60
2014,05,21,11,37,18.50
2014,05,21,11,38,18.50
2014,05,21,11,39,18.40
2014,05,21,11,40,18.40
2014,05,21,11,41,18.40
2014,05,21,11,42,18.40
2014,05,21,11,43,18.30
2014,05,21,11,44,18.30
2014,05,21,11,45,18.40
2014,05,21,11,46,18.40
2014,05,21,11,47,18.50
2014,05,21,11,48,18.60
2014,05,21,11,49,18.70
2014,05,21,11,50,18.80
2014,05,21,11,51,18.90
2014,05,21,11,52,18.90
2014,05,21,11,53,19.10
2014,05,21,11,54,19.10
2014,05,21,11,55,19.10
2014,05,21,11,56,19.10
2014,05,21,11,57,19.10
2014,05,21,11,58,19.10
2014,05,21,11,59,19.10
2014,05,21,12,00,19.10
2014,05,21,12,01,19.10
2014,05,21,12,02,19.00
2014,05,21,12,03,18.90
2014,05,21,12,04,18.70
2014,05,21,12,05,18.50
2014,05,21,12,06,18.40
2014,05,21,12,07,18.30
2014,05,21,12,08,18.20
2014,05,21,12,09,18.20
2014,05,21,12,10,18.10
2014,05,21,12,11,18.00
2014,05,21,12,12,17.90
2014,05,21,12,13,17.90
2014,05,21,12,14,17.90
2014,05,21,12,15,17.90
2014,05,21,12,16,17.90
2014,05,21,12,17,17.90
2014,05,21,12,18,17.90
2014,05,21,12,19,17.90
2014,05,21,12,20,17.90
2014,05,21,12,21,17.90
2014,05,21,12,22,17.90
2014,05,21,12,23,17.90
2014,05,21,12,24,17.90
2014,05,21,12,25,18.00
2014,05,21,12,26,18.10
2014,05,21,12,27,18.20
2014,05,21,12,28,18.20
2014,05,21,12,29,18.20
2014,05,21,12,30,18.30
2014,05,21,12,31,18.40
2014,05,21,12,32,18.50
2014,05,21,12,33,18.60
2014,05,21,12,34,18.60
2014,05,21,12,35,18.60
2014,05,21,12,36,18.70
2014,05,21,12,37,18.70
2014,05,21,12,38,18.80
2014,05,21,12,39,18.70
2014,05,21,12,40,18.60
2014,05,21,12,41,18.50
2014,05,21,12,42,18.50
2014,05,21,12,43,18.50
2014,05,21,12,44,18.60
2014,05,21,12,45,18.60
2014,05,21,12,46,18.70
2014,05,21,12,47,18.70
2014,05,21,12,48,18.80
2014,05,21,12,49,18.80
2014,05,21,12,50,18.80
2014,05,21,12,51,18.80
2014,05,21,12,52,18.90
2014,05,21,12,53,18.90
2014,05,21,12,54,19.00
2014,05,21,12,55,19.00
2014,05,21,12,56,18.90
2014,05,21,12,57,18.90
2014,05,21,12,58,18.90
2014,05,21,12,59,18.90
2014,05,21,13,00,18.90
2014,05,21,13,01,18.80
2014,05,21,13,02,18.80
2014,05,21,13,03,18.80
2014,05,21,13,04,18.80
2014,05,21,13,05,18.80
2014,05,21,13,06,18.80
2014,05,21,13,07,18.90
2014,05,21,13,08,18.90
2014,05,21,13,09,18.90
2014,05,21,13,10,18.90
2014,05,21,13,11,18.90
2014,05,21,13,12,18.90
2014,05,21,13,13,19.00
2014,05,21,13,14,19.10
2014,05,21,13,15,19.10
2014,05,21,13,16,19.30
2014,05,21,13,17,19.50
2014,05,21,13,18,19.60
2014,05,21,13,19,19.70
2014,05,21,13,20,19.90
2014,05,21,13,21,19.90
2014,05,21,13,22,19.90
2014,05,21,13,23,19.90
2014,05,21,13,24,19.90
2014,05,21,13,25,19.90
2014,05,21,13,26,20.00
2014,05,21,13,27,20.10
2014,05,21,13,28,20.10
2014,05,21,13,29,20.10
2014,05,21,13,30,20.10
2014,05,21,13,31,19.90
2014,05,21,13,32,19.90
2014,05,21,13,33,19.80
2014,05,21,13,34,19.80
2014,05,21,13,35,19.90
2014,05,21,13,36,19.90
2014,05,21,13,37,19.90
2014,05,21,13,38,19.90
2014,05,21,13,39,19.90
2014,05,21,13,40,19.90
2014,05,21,13,41,19.90
2014,05,21,13,42,19.90
2014,05,21,13,43,19.80
2014,05,21,13,44,19.70
2014,05,21,13,45,19.60
2014,05,21,13,46,19.70
2014,05,21,13,47,19.70
2014,05,21,13,48,19.70
2014,05,21,13,49,19.80
2014,05,21,13,50,19.90
2014,05,21,13,51,19.90
2014,05,21,13,52,19.80
2014,05,21,13,53,19.70
2014,05,21,13,54,19.70
2014,05,21,13,55,19.60
2014,05,21,13,56,19.60
2014,05,21,13,57,19.70
2014,05,21,13,58,19.70
2014,05,21,13,59,19.80
2014,05,21,14,00,19.80
2014,05,21,14,01,19.80
2014,05,21,14,02,19.90
2014,05,21,14,03,19.90
2014,05,21,14,04,19.90
2014,05,21,14,05,19.90
2014,05,21,14,06,19.90
2014,05,21,14,07,19.90
2014,05,21,14,08,19.90
2014,05,21,14,09,19.90
2014,05,21,14,10,19.80
2014,05,21,14,11,19.60
2014,05,21,14,12,19.50
2014,05,21,14,13,19.40
2014,05,21,14,14,19.30
2014,05,21,14,15,19.30
2014,05,21,14,16,19.20
2014,05,21,14,17,19.20
2014,05,21,14,18,19.10
2014,05,21,14,19,19.10
2014,05,21,14,20,19.10
2014,05,21,14,21,19.10
2014,05,21,14,22,19.10
2014,05,21,14,23,19.20
2014,05,21,14,24,19.20
2014,05,21,14,25,19.20
2014,05,21,14,26,19.20
2014,05,21,14,27,19.20
2014,05,21,14,28,19.30
2014,05,21,14,29,19.40
2014,05,21,14,30,19.40
2014,05,21,14,31,19.50
2014,05,21,14,32,19.60
2014,05,21,14,33,19.60
2014,05,21,14,34,19.50
2014,05,21,14,35,19.50
2014,05,21,14,36,19.40
2014,05,21,14,37,19.30
2014,05,21,14,38,19.30
2014,05,21,14,39,19.30
2014,05,21,14,40,19.20
2014,05,21,14,41,19.10
2014,05,21,14,42,19.10
2014,05,21,14,43,19.10
2014,05,21,14,44,19.10
2014,05,21,14,45,18.90
2014,05,21,14,46,18.90
2014,05,21,14,47,18.90
2014,05,21,14,48,18.90
2014,05,21,14,49,18.90
2014,05,21,14,50,18.90
2014,05,21,14,51,18.90
2014,05,21,14,52,18.90
2014,05,21,14,53,18.90
2014,05,21,14,54,18.90
2014,05,21,14,55,18.90
2014,05,21,14,56,18.90
2014,05,21,14,57,18.90
2014,05,21,14,58,18.90
2014,05,21,14,59,18.90
2014,05,21,15,00,18.90
2014,05,21,15,01,18.90
2014,05,21,15,02,18.90
2014,05,21,15,03,18.90
2014,05,21,15,04,18.90
2014,05,21,15,05,18.90
2014,05,21,15,06,18.90
2014,05,21,15,07,18.90
2014,05,21,15,08,18.90
2014,05,21,15,09,18.90
2014,05,21,15,10,19.00
2014,05,21,15,11,19.10
2014,05,21,15,12,19.10
2014,05,21,15,13,19.10
2014,05,21,15,14,19.10
2014,05,21,15,15,19.00
2014,05,21,15,16,19.00
2014,05,21,15,17,18.90
2014,05,21,15,18,18.90
2014,05,21,15,19,18.90
2014,05,21,15,20,18.90
2014,05,21,15,21,18.90
2014,05,21,15,22,18.90
2014,05,21,15,23,18.90
2014,05,21,15,24,18.90
2014,05,21,15,25,18.90
2014,05,21,15,26,18.90
2014,05,21,15,27,18.90
2014,05,21,15,28,18.90
2014,05,21,15,29,18.90
2014,05,21,15,30,18.90
2014,05,21,15,31,18.90
2014,05,21,15,32,18.90
2014,05,21,15,33,18.80
2014,05,21,15,34,18.80
2014,05,21,15,35,18.70
2014,05,21,15,36,18.70
2014,05,21,15,37,18.60
2014,05,21,15,38,18.50
2014,05,21,15,39,18.50
2014,05,21,15,40,18.40
2014,05,21,15,41,18.40
2014,05,21,15,42,18.40
2014,05,21,15,43,18.40
2014,05,21,15,44,18.40
2014,05,21,15,45,18.40
2014,05,21,15,46,18.40
2014,05,21,15,47,18.40
2014,05,21,15,48,18.40
2014,05,21,15,49,18.30
2014,05,21,15,50,18.30
2014,05,21,15,51,18.30
2014,05,21,15,52,18.30
2014,05,21,15,53,18.30
2014,05,21,15,54,18.30
2014,05,21,15,55,18.30
2014,05,21,15,56,18.30
2014,05,21,15,57,18.20
2014,05,21,15,58,18.20
2014,05,21,15,59,18.20
2014,05,21,16,00,18.20
2014,05,21,16,01,18.10
2014,05,21,16,02,18.10
2014,05,21,16,03,17.90
2014,05,21,16,04,17.80
2014,05,21,16,05,17.80
2014,05,21,16,06,17.80
2014,05,21,16,07,17.70
2014,05,21,16,08,17.70
2014,05,21,16,09,17.70
2014,05,21,16,10,17.70
2014,05,21,16,11,17.80
2014,05,21,16,12,17.80
2014,05,21,16,13,17.80
2014,05,21,16,14,17.80
2014,05,21,16,15,17.80
2014,05,21,16,16,17.90
2014,05,21,16,17,17.90
2014,05,21,16,18,17.90
2014,05,21,16,19,17.90
2014,05,21,16,20,17.90
2014,05,21,16,21,18.00
2014,05,21,16,22,18.10
2014,05,21,16,23,18.10
2014,05,21,16,24,18.20
2014,05,21,16,25,18.20
2014,05,21,16,26,18.20
2014,05,21,16,27,18.20
2014,05,21,16,28,18.10
2014,05,21,16,29,18.20
2014,05,21,16,30,18.20
2014,05,21,16,31,18.20
2014,05,21,16,32,18.20
2014,05,21,16,33,18.10
2014,05,21,16,34,18.10
2014,05,21,16,35,18.10
2014,05,21,16,36,18.10
2014,05,21,16,37,18.10
2014,05,21,16,38,18.10
2014,05,21,16,39,18.10
2014,05,21,16,40,18.10
2014,05,21,16,41,18.10
2014,05,21,16,42,18.10
2014,05,21,16,43,18.10
2014,05,21,16,44,18.10
2014,05,21,16,45,18.10
2014,05,21,16,46,18.10
2014,05,21,16,47,18.10
2014,05,21,16,48,18.10
2014,05,21,16,49,18.10
2014,05,21,16,50,18.20
2014,05,21,16,51,18.20
2014,05,21,16,52,18.20
2014,05,21,16,53,18.20
2014,05,21,16,54,18.20
2014,05,21,16,55,18.20
2014,05,21,16,56,18.20
2014,05,21,16,57,18.20
2014,05,21,16,58,18.10
2014,05,21,16,59,18.10
2014,05,21,17,00,18.10
2014,05,21,17,01,18.10
2014,05,21,17,02,18.10
2014,05,21,17,03,18.10
2014,05,21,17,04,18.10
2014,05,21,17,05,18.10
2014,05,21,17,06,18.10
2014,05,21,17,07,18.10
2014,05,21,17,08,18.10
2014,05,21,17,09,18.10
2014,05,21,17,10,18.10
2014,05,21,17,11,18.10
2014,05,21,17,12,18.10
2014,05,21,17,13,18.10
2014,05,21,17,14,18.10
2014,05,21,17,15,18.00
2014,05,21,17,16,17.90
2014,05,21,17,17,17.90
2014,05,21,17,18,17.90
2014,05,21,17,19,17.90
2014,05,21,17,20,17.90
2014,05,21,17,21,17.90
2014,05,21,17,22,17.90
2014,05,21,17,23,17.90
2014,05,21,17,24,17.90
2014,05,21,17,25,17.90
2014,05,21,17,26,17.80
2014,05,21,17,27,17.80
2014,05,21,17,28,17.80
2014,05,21,17,29,17.80
2014,05,21,17,30,17.80
2014,05,21,17,31,17.80
2014,05,21,17,32,17.70
2014,05,21,17,33,17.70
2014,05,21,17,34,17.70
2014,05,21,17,35,17.70
2014,05,21,17,36,17.70
2014,05,21,17,37,17.60
2014,05,21,17,38,17.60
2014,05,21,17,39,17.60